GW0710 Weather Reports


time (UTC)temp
F
wind
direction
speed
knots
gust
knots
rain 1hr
in
rain 24hr
in
rain mn
in
humidity
%
barometer
mb
20260504221638 80 258 3.5 11.3 0.00 0.03 0.03 45 1001.4
20260504220055 81 105 1.7 6.1 0.00 0.03 0.03 43 1001.5
20260504214604 80 42 2.6 7.0 0.00 0.03 0.03 44 1001.5
20260504213102 80 326 3.5 8.7 0.00 0.03 0.03 43 1001.5
20260504211557 80 133 1.7 6.1 0.00 0.03 0.03 43 1001.5
20260504210100 80 259 1.7 7.8 0.00 0.03 0.03 42 1001.6
20260504204555 80 140 1.7 11.3 0.00 0.03 0.03 43 1001.7
20260504203057 80 229 2.6 9.6 0.00 0.03 0.03 43 1002.0
20260504201556 80 247 1.7 8.7 0.00 0.03 0.03 46 1002.0
20260504200056 79 99 6.1 12.2 0.00 0.03 0.03 43 1002.1
20260504194603 79 111 2.6 12.2 0.00 0.03 0.03 45 1002.2
20260504193056 79 342 1.7 7.8 0.00 0.03 0.03 46 1002.3
20260504191624 79 295 3.5 11.3 0.00 0.03 0.03 45 1002.2
20260504184606 79 237 0.9 7.8 0.00 0.03 0.03 47 1002.3
20260504183056 77 82 5.2 12.2 0.00 0.03 0.03 49 1002.5
20260504181559 77 238 0.9 7.8 0.00 0.03 0.03 47 1002.5
20260504180056 77 253 1.7 7.0 0.00 0.03 0.03 47 1002.4
20260504174559 76 209 1.7 6.1 0.00 0.03 0.03 52 1002.7
20260504173052 75 351 4.3 12.2 0.00 0.03 0.03 49 1003.0
20260504171552 76 300 1.7 8.7 0.00 0.03 0.03 51 1003.1
20260504140106 69 355 0.9 6.1 0.00 0.03 0.03 60 1004.2
20260504081557 56 130 0.9 6.1 0.00 0.00 0.00 81 1005.4
20260504060104 57 0 0.0 0.9 0.00 0.00 0.00 79 1007.8
20260504044555 58 0 0.0 1.7 0.00 0.00 0.00 79 1008.2
20260504043057 59 0 0.0 1.7 0.00 0.00 0.00 75 1008.5
20260504041600 59 0 0.0 0.9 0.00 0.00 0.00 77 1008.6
20260504040059 59 0 0.0 0.0 0.00 0.00 0.00 75 1008.2
20260504034604 60 163 0.9 1.7 0.00 0.00 0.00 73 1008.6
20260504033058 60 275 0.9 2.6 0.00 0.00 0.00 70 1008.7
20260504031605 59 300 1.7 2.6 0.00 0.00 0.00 74 1009.1
20260504030112 59 0 0.0 0.9 0.00 0.00 0.00 76 1008.7
20260504024554 60 0 0.0 1.7 0.00 0.00 0.00 72 1008.9
20260504023054 60 0 0.0 0.0 0.00 0.00 0.00 71 1008.7
20260504021607 61 0 0.0 0.0 0.00 0.00 0.00 67 1008.7
20260504020059 62 0 0.0 0.9 0.00 0.00 0.00 63 1008.5
20260504014629 63 263 0.0 3.5 0.00 0.00 0.00 64 1008.5
20260504014557 63 263 0.0 3.5 0.00 0.00 0.00 64 1008.5
20260504013056 64 0 0.0 0.9 0.00 0.00 0.00 60 1008.4
20260504011558 66 0 0.0 0.0 0.00 0.00 0.00 58 1008.5
20260504010059 67 0 0.0 1.7 0.00 0.00 0.00 52 1008.4
20260504004559 69 0 0.0 2.6 0.00 0.00 0.00 50 1008.6
20260504003057 71 0 0.0 0.0 0.00 0.00 0.00 47 1008.5
20260504001557 71 0 0.0 2.6 0.00 0.00 0.00 47 1008.6
20260504000136 72 290 0.9 4.3 0.00 0.00 0.00 47 1008.9
20260503234603 72 310 2.6 6.1 0.00 0.00 0.00 45 1008.9
20260503233101 72 290 2.6 7.0 0.00 0.00 0.00 46 1008.9
20260503231557 72 283 3.5 8.7 0.00 0.00 0.00 45 1008.6
20260503230104 72 291 5.2 9.6 0.00 0.00 0.00 46 1009.0
20260503224559 72 296 3.5 11.3 0.00 0.00 0.00 44 1009.1
20260503223056 72 283 3.5 10.4 0.00 0.00 0.00 43 1009.1